Regional Weather Roundup
Issued by NWS

Home | Current Version | Previous Version | Text Only | Print | Product List | Glossary On
Versions: 1 2 3 4 5 6 7 8 9 10 11 12 13 14 15 16 17 18 19 20 21 22 23 24 25 26 27 28 29 30 31 32 33 34 35 36 37 38 39 40 41 42 43 44 45 46 47 48 49 50
686
ASUS44 KMEG 070000
RWRTN
TENNESSEE HOURLY STATE WEATHER ROUNDUP
NATIONAL WEATHER SERVICE MEMPHIS TN
600 PM CST SAT FEB 06 2016

TNZ002-004-019-021-049-052-054-088>092-070100-
WEST TENNESSEE

CITY           SKY/WX    TMP DP  RH WIND       PRES   REMARKS
MEMPHIS INTL   PTCLDY    48  22  35 W5        30.30S
NWS MEMPHIS      N/A     46 N/A N/A MISG        N/A
JACKSON        CLEAR     44  24  45 CALM      30.29S
DYERSBURG      CLEAR     46  21  36 CALM      30.31S
UNION CITY     CLEAR     43  25  49 CALM      30.28S
PARIS          CLEAR     41  21  45 CALM      30.29R
LEXINGTON      CLEAR     45  18  33 S3        30.27F
$$

TNZ008-025-027-028-033-062-065-066-070100-
NORTH MIDDLE TENNESSEE

CITY           SKY/WX    TMP DP  RH WIND       PRES   REMARKS
NASHVILLE      MOCLDY    48  16  27 CALM      30.29S
CLARKSVILLE    CLEAR     48  20  32 SW5       30.28R
COOKEVILLE     CLEAR     39  32  75 CALM      30.27S
CROSSVILLE     PTCLDY    39  17  41 CALM      30.26F
$$

TNZ061-075-076-078-094-096-097-070100-
SOUTH MIDDLE TENNESSEE

CITY           SKY/WX    TMP DP  RH WIND       PRES   REMARKS
TULLAHOMA      CLEAR     39  23  52 CALM      30.28F
WINCHESTER     PTCLDY    43  19  39 CALM      30.28F
MCMINNVILLE    CLEAR     43  25  49 CALM      30.27F
COLUMBIA       CLEAR     46  28  49 CALM      30.27S
SHELBYVILLE    CLEAR     43  25  49 CALM      30.29F
$$

TNZ017-018-042-046-047-070100-
NORTHEAST TENNESSEE

CITY           SKY/WX    TMP DP  RH WIND       PRES   REMARKS
TRI CITIES     CLOUDY    37  19  48 SE3       30.28S
$$

TNZ012-013-036-069-073-074-070100-
CENTRAL EAST TENNESSEE

CITY           SKY/WX    TMP DP  RH WIND       PRES   REMARKS
KNOXVILLE      PTCLDY    42  20  41 N5        30.27F
OAK RIDGE      CLOUDY    43  22  43 CALM      30.29F
GATLINBURG       N/A     37  18  44 CALM      30.27S
$$

TNZ083-085-099-070100-
SOUTHEAST TENNESSEE

CITY           SKY/WX    TMP DP  RH WIND       PRES   REMARKS
CHATTANOOGA    MOCLDY    45  17  32 N8        30.27F
$$

SKY/WX REPORTED AS FAIR MEANS FEW OR NO CLOUDS BELOW
12 THOUSAND FEET.





USA.gov is the U.S. government's official web portal to all federal, state and local government web resources and services.